Lid_Strength_Index
17 16 16 16 16 16 18 16 18 16 16 13 13 12 12 13 12 11 11 10 10 10 10 9 9 8 8 8 8 7 7 7 7 6 6 7 7 7 7 8 8 8 8 8
23 17 16 17 16 15 15 14 15 15 16 12 13 13 13 12 11 11 10 10 9 9 9 9 9 8 8 8 7 7 7 7 7 6 6 7 7 7 7 7 7 7 8 8
22 18 19 22 18 16 16 15 15 17 15 14 14 13 12 11 11 10 9 9 9 8 8 8 8 7 8 8 7 8 7 7 7 7 7 7 7 7 8 8 7 7 7 7
22 22 27 19 16 15 16 15 15 15 14 13 13 12 11 9 9 9 8 8 8 8 8 8 7 7 7 7 7 7 7 7 7 7 7 7 7 7 8 8 8 8 7 7
23 24 20 18 17 16 16 16 15 15 14 13 12 13 13 9 8 8 8 7 7 7 7 7 7 7 8 8 8 8 7 7 7 7 7 7 7 7 7 8 8 8 7 7
19 21 23 19 16 14 14 18 13 13 13 14 13 17 14 11 9 8 7 7 7 7 7 7 7 8 8 8 8 8 7 7 7 6 7 7 7 7 7 7 7 7 7 7
17 18 18 16 14 13 18 17 14 13 13 13 14 12 11 10 9 8 8 7 7 7 7 7 7 7 8 8 8 7 7 6 6 6 6 6 6 6 7 7 7 7 7 6
18 19 21 15 15 17 15 13 12 12 12 12 12 11 10 10 9 8 8 8 7 7 8 7 7 7 8 8 7 6 6 7 7 6 6 6 6 6 6 6 7 7 7 7
17 18 14 13 13 12 11 13 13 13 12 11 11 11 10 10 9 9 8 8 7 7 8 7 7 7 8 6 6 6 6 7 6 6 6 6 6 6 6 6 6 7 7 7
17 17 15 13 12 12 11 11 10 10 10 10 11 9 10 9 9 8 8 7 6 7 7 7 6 6 6 5 5 6 6 6 5 6 5 5 5 5 5 6 6 6 6 6
17 15 14 13 12 12 11 10 10 10 9 9 9 9 9 8 7 6 6 6 5 6 6 6 5 6 5 5 5 6 6 6 6 5 6 6 6 6 6 5 5 6 5 5
17 14 14 13 12 11 11 11 10 9 9 8 7 7 6 6 5 5 5 5 5 6 7 6 5 5 5 5 5 6 6 6 6 5 6 6 6 6 4 4 3 3 3 3
14 12 12 11 10 10 10 9 8 7 7 7 6 6 6 6 5 4 4 5 5 6 5 5 5 5 5 4 5 5 6 6 5 5 6 6 6 7 7 5 4 4 3 3
11 12 13 11 12 9 9 8 6 6 6 6 6 6 6 6 5 6 6 5 5 5 5 5 5 5 4 4 5 5 5 4 5 5 6 6 6 6 6 7 8 7 4 4
11 10 10 9 10 9 8 7 8 8 7 7 7 7 7 7 6 6 5 5 5 5 5 5 5 5 4 5 6 6 6 6 6 6 6 6 6 6 6 6 7 7 6 5
10 10 10 10 9 9 9 9 9 9 8 7 7 7 6 6 6 6 5 5 6 7 6 5 5 5 5 5 6 6 6 5 4 5 5 5 6 6 6 7 7 7 7 6
11 11 10 10 10 9 9 8 8 8 7 7 7 6 6 6 5 6 5 5 5 6 6 5 6 5 5 5 6 6 6 6 5 5 6 6 6 6 6 7 7 6 6 6
9 9 9 8 9 9 9 8 8 8 8 7 7 7 7 7 7 7 6 6 6 6 5 5 5 5 6 6 6 6 6 6 6 7 6 6 6 6 6 6 7 7 6 6
10 10 10 9 9 9 9 9 8 8 8 8 8 9 8 8 8 8 7 8 8 8 7 6 5 4 5 5 5 6 6 7 7 7 6 6 6 6 7 7 7 7 6 7
9 9 9 9 8 9 9 8 8 9 8 9 9 10 10 9 9 9 9 9 8 8 7 7 6 7 7 6 5 6 6 6 7 7 7 7 7 7 7 6 6 6 7 8
10 9 9 9 9 9 9 9 10 10 10 10 10 10 10 10 9 9 10 10 9 7 7 6 6 7 7 6 6 6 7 7 7 7 7 7 7 7 8 9 9 9 10 10
9 9 9 9 9 10 9 9 9 9 9 10 10 9 10 10 9 9 9 9 8 7 7 7 7 7 6 4 6 6 7 7 8 8 10 11 11 11 12 11 11 11 11 11
9 9 9 9 9 10 9 9 9 9 9 9 9 9 9 9 9 10 11 8 8 7 7 7 6 5 5 6 7 7 8 9 11 12 12 12 13 13 13 12 12 12 12 12
9 9 9 9 9 10 11 9 9 8 8 8 8 8 9 9 9 8 8 7 7 7 7 6 6 6 6 7 8 9 11 13 13 13 14 13 14 14 13 13 13 13 13 13
9 9 9 10 10 10 9 9 9 9 9 9 9 8 8 8 8 8 8 8 7 7 8 7 7 7 9 10 11 12 13 14 13 14 15 15 14 14 14 13 14 14 14 14
10 10 10 9 9 9 9 10 11 10 10 10 9 9 8 8 7 7 8 7 7 7 8 9 9 10 11 12 13 14 14 14 14 15 15 15 15 15 15 14 15 15 15 15
10 8 9 9 9 10 10 10 11 11 10 10 10 9 8 8 8 7 7 8 9 9 10 11 12 11 13 13 14 14 14 14 13 14 14 15 15 14 14 14 14 14 14 14